• Join FlightAware (Why Join?)
  • Login
  • US Flag 
06:35AM EDT


 

Airport Tracker/Info


-or-


 

Live Flight TrackerFlight Track Log ✈ GJS6234 ✈ 21-Jun-2013 ✈ KSYR - KLGA

Flight Track Log - Related Links

Times and Time Zones

All times are in EDT time to prevent confusion due to time zone crossing. See the GJS6234 flight status page for this flight to view local times or setup timezone preferences in your user account.

Time Position Orientation Groundspeed Altitude Reporting Facility
EDT Latitude Longitude Course Direction KTS MPH feet Rate Location/Type
05:56PM 43.1089 -76.0950 107° East 157 181 1,000  Level Boston Center
05:57PM 43.0925 -76.0200 107° East 211 243 3,400 1,860 Climbing Boston Center
05:57PM 43.0806 -75.9967 125° Southeast 227 261 4,100 2,460 Climbing Boston Center
05:58PM 43.0183 -75.9192 138° Southeast 237 273 7,300 2,940 Climbing Boston Center
05:59PM 42.9619 -75.8506 138° Southeast 258 297 10,000 2,340 Climbing Boston Center
06:00PM 42.8956 -75.7706 139° Southeast 287 330 12,000 1,680 Climbing Boston Center
06:01PM 42.8211 -75.6758 137° Southeast 328 377 13,400 1,440 Climbing Boston Center
06:02PM 42.7386 -75.5725 137° Southeast 371 427 14,900 1,500 Climbing Boston Center
06:03PM 42.6539 -75.4722 139° Southeast 403 464 16,500 1,500 Climbing Boston Center
06:04PM 42.5608 -75.3578 138° Southeast 428 493 18,000 1,320 Climbing Boston Center
06:05PM 42.4700 -75.2408 136° Southeast 439 505 19,200 1,200 Climbing Boston Center
06:06PM 42.4089 -75.0919 119° Southeast 450 518 20,400 900 Climbing Boston Center
06:07PM 42.3503 -74.9264 116° Southeast 464 534 21,000 -120 Climbing Boston Center
06:08PM 42.2911 -74.7669 117° Southeast 476 548 20,200 -840 Descending Boston Center
06:09PM 42.2336 -74.6133 117° Southeast 471 542 19,400 -840 Descending Boston Center
06:10PM 42.1781 -74.4600 116° Southeast 458 527 18,600 -720 Descending Boston Center
06:11PM 42.1264 -74.3239 117° Southeast 453 521 18,000 -300 Descending Boston Center
06:12PM 42.0217 -74.2203 144° Southeast 423 487 18,000  Level Boston Center
06:13PM 41.9206 -74.1589 156° South 434 499 18,000  Level Boston Center
06:14PM 41.8089 -74.0889 155° Southeast 441 507 18,000 -960 Level Boston Center
06:15PM 41.6850 -74.0106 155° Southeast 446 513 16,100 -2,520 Descending Boston Center
06:17PM 41.5333 -73.9167 155° Southeast 403 464 11,900 -2,400 Descending New York TRACON
06:18PM 41.4500 -73.8667 156° South 350 403 10,400 -1,320 Descending New York TRACON
06:19PM 41.3667 -73.8167 156° South 291 335 9,300 -1,080 Descending New York TRACON
06:20PM 41.3000 -73.7500 143° Southeast 300 345 8,300 -660 Descending New York TRACON
06:21PM 41.2333 -73.7000 151° Southeast 288 331 8,000 -720 Descending New York TRACON
06:22PM 41.1667 -73.6333 143° Southeast 294 338 6,900 -1,320 Descending New York TRACON
06:23PM 41.0833 -73.6333 180° South 287 330 5,400 -1,320 Descending New York TRACON
06:24PM 41.0167 -73.6833 210° Southwest 261 300 4,300 -960 Descending New York TRACON
06:25PM 40.9667 -73.7333 217° Southwest 252 290 3,500 -720 Descending New York TRACON
06:26PM 40.9167 -73.7667 207° Southwest 194 223 2,900 -780 Descending New York TRACON
06:27PM 40.8667 -73.8000 207° Southwest 159 183 2,000 -900 Descending New York TRACON